• Join FlightAware (Why Join?)
  • Login
  • US Flag 
11:25PM EDT


 

Airport Tracker/Info


-or-


 

Live Flight TrackerFlight Track Log ✈ EJA929 ✈ 11-Jul-2013 ✈ KBHM - KBFM

Flight Track Log - Related Links

Times and Time Zones

All times are in EDT time to prevent confusion due to time zone crossing. See the EJA929 flight status page for this flight to view local times or setup timezone preferences in your user account.

Time Position Orientation Groundspeed Altitude Reporting Facility
EDT Latitude Longitude Course Direction KTS MPH feet Rate Location/Type
03:35PM 33.5444 -86.7906 234° Southwest 177 204 1,800  Level Atlanta Center
03:36PM 33.4989 -86.8661 234° Southwest 225 259 7,200 3,300 Climbing Atlanta Center
03:37PM 33.4511 -86.9444 234° Southwest 261 300 10,100 2,280 Climbing Atlanta Center
03:38PM 33.3903 -87.0467 235° Southwest 323 372 12,200 2,160 Climbing Atlanta Center
03:39PM 33.3228 -87.1514 232° Southwest 380 437 14,500 1,920 Climbing Atlanta Center
03:40PM 33.2639 -87.2586 237° Southwest 385 443 16,100 780 Climbing Atlanta Center
03:41PM 33.1961 -87.3703 234° Southwest 407 468 16,100  Level Atlanta Center
03:42PM 33.1258 -87.4914 235° Southwest 432 497 16,100  Level Atlanta Center
03:43PM 33.0581 -87.6078 235° Southwest 442 509 16,100  Level Atlanta Center
03:44PM 32.9667 -87.7278 228° Southwest 442 509 16,100  Level Atlanta Center
03:46PM 32.8494 -87.8647 224° Southwest 446 513 16,100  Level Memphis Center
03:47PM 32.7578 -87.9858 228° Southwest 446 513 16,100 -60 Level Memphis Center
03:48PM 32.6761 -88.0867 226° Southwest 439 505 16,000 -60 Descending Memphis Center
03:49PM 32.5883 -88.1900 225° Southwest 439 505 16,000  Level Memphis Center
03:50PM 32.5025 -88.2981 227° Southwest 434 499 16,100  Climbing Memphis Center
03:51PM 32.4164 -88.4058 227° Southwest 440 506 16,100  Level Memphis Center
03:52PM 32.3067 -88.4597 203° Southwest 440 506 16,100  Level Memphis Center
03:53PM 32.1856 -88.4500 176° South 414 476 16,100  Level Memphis Center
03:54PM 32.0622 -88.4431 177° South 427 491 16,100  Level Memphis Center
03:55PM 31.9536 -88.4356 177° South 435 501 16,100  Level Memphis Center
03:55PM 31.8722 -88.4278 175° South 442 509 16,100  Level Houston Center
03:56PM 31.7250 -88.4206 178° South 440 506 16,100 -60 Level Houston Center
03:57PM 31.6014 -88.4128 177° South 444 511 16,000 -120 Descending Houston Center
03:58PM 31.4783 -88.4042 177° South 443 510 15,900 -900 Descending Houston Center
03:59PM 31.3531 -88.3969 177° South 449 517 14,200 -1,680 Descending Houston Center
04:00PM 31.2336 -88.3894 177° South 437 503 12,500 -1,800 Descending Houston Center
04:01PM 31.1039 -88.3825 177° South 400 460 10,500 -1,740 Descending Houston Center
04:02PM 31.0206 -88.3556 165° South 326 375 9,000 -1,560 Descending Houston Center
04:04PM 30.9583 -88.3011 143° Southeast 291 335 7,400 -1,680 Descending Houston Center
04:05PM 30.8981 -88.2472 143° Southeast 281 323 5,600 -1,680 Descending Houston Center
04:06PM 30.8278 -88.1803 141° Southeast 276 318 4,000 -840 Descending Houston Center
04:07PM 30.7722 -88.1267 140° Southeast 266 306 3,900 -60 Descending Houston Center
04:08PM 30.7158 -88.0708 140° Southeast 265 305 3,900 -360 Level Houston Center
04:10PM 30.6156 -87.9669 138° Southeast 238 274 2,900 -360 Descending Houston Center
04:11PM 30.5711 -87.9169 136° Southeast 226 260 2,900 -540 Level Houston Center
04:12PM 30.5128 -87.8819 153° Southeast 224 258 1,900 -540 Descending Houston Center
04:13PM 30.5019 -87.9314 256° West 192 221 1,900  Level Houston Center
04:14PM 30.5300 -87.9744 307° West 177 204 1,900 -240 Level Houston Center
04:15PM 30.5589 -88.0031 320° Northwest 156 180 1,400 -540 Descending Houston Center
04:16PM 30.5856 -88.0294 320° Northwest 139 160 800 -600 Descending Houston Center
04:17PM 30.6153 -88.0594 319° Northwest 134 154 200 -600 Descending Houston Center
04:19PM 30.6167 -88.0667 304° West  Level FlightAware Approximate